Meteopurmerend
purmerend
Purmerend - Baaienwijk



My webcam  My webcam


waarschuwing voor Onweer Meer informatie blitzortung!


Regen radar Meer informatie rain snow radar


Bezoek onze andere website:

CandyAppleRed WebdesignWebdesign Purmerend Candy Apple Red

MeteopurmerendBlog

Template documentation
and downloads



Onweer van: 26-07-2021 13:00 tot: 21:00 waarschuwing voor: Onweer niveau: Geel info button
Enkele onweersbuien, lokaal met hagel en veel neerslag in korte tijd.Kans op blikseminslag, hagel en veel neerslag in korte tijd.Verkeer en buitenactiviteiten kunnen hinder ondervinden.Mijd open water en open gebied, schuil niet onder bomen.Volg weerberichten en waarschuwingen.

15 daagse weersverwachting Horten (NO)

  • Overzicht
  • Per uur
  • 15 dagen
  • Extra
  • Vergelijk
  • Kaarten
  • Dagkaart
  • Meer »
  • Info
  • Statistieken
  • Directe link
    Temp 6h Neerslag Wind  
 04:53     21:58    Daglengte: 17:05 Vandaag
20:00
21°
1.6 mm
2
warningclass
 04:55     21:55    Daglengte: 17:00 Morgen
02:00
20°
3.8 mm
3
08:00
20°
6.2 mm
3
14:00
20°
7.0 mm
5
warningclass
20:00
20°
21.5 mm
4
warningclass
 04:58     21:53    Daglengte: 16:55 Woensdag 28 Jul
02:00
19°
17.6 mm
2
warningclass
08:00
19°
12.5 mm
3
warningclass
14:00
20°
14.4 mm
5
20:00
20°
 
5
 05:00     21:51    Daglengte: 16:51 Donderdag 29 Jul
02:00
18°
17.4 mm
4
08:00
17°
16.7 mm
4
Locatie info
Region: Vestfold
Latitude: 59.4176°N
Longitude: 10.4824°E
16 masl
Postcode: 3181
Temp/Neerslag /Baro Onweer/Dauwpunt
    Temp Baro 1h Neerslag Dauwpunt Wind UV Bewolking  
 04:53     21:58    Daglengte: 17:05 Vandaag
16:00
23°
1014.4 hPa
35%
14.4°
6
Windvlaag: 3.5 m/s
82%
17:00
23°
1014.0 hPa
37%
15.0°
5
Windvlaag: 2.7 m/s
82%
18:00
23°
1013.8 hPa 0.4 mm
37%
15.1°
4
Windvlaag: 1.4 m/s
84%
19:00
22°
1013.5 hPa 0.3 mm
80%
15.5°
3
Windvlaag: 3.5 m/s
84% warningclass
20:00
21°
1013.3 hPa 0.8 mm
82%
17.0°
2
Windvlaag: 0.5 m/s
80% warningclass
21:00
21°
1013.2 hPa
77%
18.2°
4
Windvlaag: -1.3 m/s
62%
22:00
21°
1013.2 hPa 0.8 mm
82%
18.9°
4
Windvlaag: -2.8 m/s
58%
23:00
20°
1013.4 hPa 2.3 mm
82%
18.9°
4
Windvlaag: -2.8 m/s
63% warningclass
 04:55     21:55    Daglengte: 17:00 Morgen
00:00
20°
1013.0 hPa
82%
18.3°
3
Windvlaag: -2.5 m/s
86% warningclass
01:00
20°
1012.7 hPa 0.7 mm
78%
18.4°
3
Windvlaag: -2.7 m/s
83%
02:00
20°
1012.6 hPa
81%
18.6°
3
Windvlaag: -4.3 m/s
86%
03:00
20°
1012.3 hPa 2.2 mm
82%
18.8°
3
Windvlaag: -5.6 m/s
84% warningclass
04:00
20°
1012.1 hPa 3.0 mm
82%
18.7°
4
Windvlaag: -5.3 m/s
86% warningclass
05:00
20°
1011.7 hPa 1.1 mm
81%
18.5°
4
Windvlaag: -3.8 m/s
85%
06:00
20°
1011.6 hPa
77%
18.3°
3
Windvlaag: -1.1 m/s
84%
07:00
20°
1011.3 hPa
30%
18.3°
3
Windvlaag: -1.9 m/s
85%
08:00
20°
1011.3 hPa
73%
18.2°
3
Windvlaag: -2.8 m/s
81%
09:00
20°
1011.3 hPa
74%
18.1°
3
Windvlaag: -2.6 m/s
86%
10:00
20°
1010.9 hPa
82%
17.3°
4
Windvlaag: -3.9 m/s
85%
11:00
20°
1010.7 hPa 1.5 mm
82%
16.6°
4
Windvlaag: -4 m/s
80% warningclass
12:00
20°
1010.3 hPa 1.7 mm
82%
17.2°
5
Windvlaag: -4.8 m/s
86% warningclass
13:00
20°
1009.8 hPa 1.9 mm
82%
17.0°
6
Windvlaag: -5.9 m/s
86%
14:00
20°
1009.5 hPa 1.9 mm
82%
16.8°
5
Windvlaag: -5.2 m/s
86% warningclass
15:00
21°
1009.0 hPa 3.4 mm
82%
16.7°
4
Windvlaag: -4.7 m/s
86% warningclass
16:00
21°
1008.7 hPa 3.5 mm
82%
17.9°
3
Windvlaag: -4 m/s
84% warningclass
17:00
21°
1008.2 hPa 2.5 mm
82%
18.0°
4
Windvlaag: -4.7 m/s
75% warningclass
18:00
21°
1007.8 hPa 2.8 mm
82%
18.4°
3
Windvlaag: -2.5 m/s
69% warningclass
19:00
20°
1007.6 hPa 5.2 mm
82%
18.0°
3
Windvlaag: 1.2 m/s
82% warningclass
20:00
20°
1007.3 hPa 4.1 mm
82%
17.8°
4
Windvlaag: -1.4 m/s
84% warningclass
21:00
20°
1007.3 hPa 4.1 mm
82%
18.1°
3
Windvlaag: -1.3 m/s
85% warningclass
22:00
20°
1007.2 hPa 4.0 mm
82%
18.5°
2
Windvlaag: -0 m/s
85% warningclass
23:00
20°
1007.1 hPa 2.9 mm
82%
18.6°
2
Windvlaag: 0.6 m/s
85% warningclass
 04:58     21:53    Daglengte: 16:55 Woensdag 28 Jul
00:00
19°
1007.1 hPa 2.8 mm
82%
18.5°
2
Windvlaag: -0.3 m/s
84% warningclass
01:00
19°
1006.6 hPa 1.9 mm
82%
18.4°
2
Windvlaag: 0 m/s
68% warningclass
02:00
19°
1006.3 hPa 1.9 mm
82%
18.5°
2
Windvlaag: 0.9 m/s
63% warningclass
03:00
19°
1005.8 hPa 2.0 mm
82%
18.4°
2
Windvlaag: 1.8 m/s
66% warningclass
04:00
19°
1005.5 hPa 1.8 mm
82%
18.1°
2
Windvlaag: 2 m/s
68%
05:00
19°
1005.1 hPa 2.0 mm
82%
18.0°
3
Windvlaag: 2.2 m/s
67%
06:00
19°
1004.9 hPa 1.9 mm
82%
18.0°
3
Windvlaag: 3.4 m/s
65%
07:00
19°
1004.8 hPa 2.6 mm
82%
17.9°
4
Windvlaag: 5.2 m/s
83%
08:00
19°
1004.7 hPa 2.2 mm
82%
17.7°
3
Windvlaag: 5.3 m/s
84% warningclass
09:00
19°
1004.7 hPa 2.2 mm
82%
17.7°
4
Windvlaag: 5.3 m/s
84% warningclass
10:00
19°
1004.6 hPa 2.1 mm
82%
17.5°
4
Windvlaag: 5.4 m/s
57% warningclass
11:00
19°
1003.9 hPa 2.0 mm
100%
15.6°
4
Windvlaag: 6 m/s
79%
12:00
19°
1003.7 hPa 2.9 mm
100%
13.9°
4
Windvlaag: 6.6 m/s
56%
13:00
20°
1003.6 hPa 2.0 mm
100%
13.0°
4
Windvlaag: 6.8 m/s
84%
14:00
20°
1003.2 hPa 3.2 mm
100%
12.7°
5
Windvlaag: 7.1 m/s
64%
15:00
20°
1003.0 hPa
99%
13.0°
5
Windvlaag: 6.9 m/s
68%
16:00
20°
1002.9 hPa
56%
13.2°
6
Windvlaag: 7.3 m/s
60%
17:00
20°
1002.6 hPa
86%
14.1°
6
Windvlaag: 7.9 m/s
59%
18:00
20°
1002.1 hPa
34%
13.8°
6
Windvlaag: 8 m/s
51%
19:00
20°
1001.7 hPa
65%
14.1°
5
Windvlaag: 7.5 m/s
54%
20:00
20°
1001.4 hPa
24%
14.4°
5
Windvlaag: 7.1 m/s
52%
21:00
19°
1001.2 hPa 2.8 mm
72%
15.1°
4
Windvlaag: 5.9 m/s
55%
22:00
19°
1000.9 hPa 2.9 mm
74%
16.0°
4
Windvlaag: 5.5 m/s
50%
23:00
19°
1000.6 hPa 2.8 mm
77%
16.0°
4
Windvlaag: 6 m/s
37%
 05:00     21:51    Daglengte: 16:51 Donderdag 29 Jul
00:00
18°
1000.2 hPa 2.8 mm
34%
15.7°
3
Windvlaag: 5.5 m/s
55%
01:00
18°
999.5 hPa 2.9 mm
37%
15.3°
3
Windvlaag: 4.4 m/s
85%
02:00
18°
999.0 hPa 3.1 mm
34%
15.1°
4
Windvlaag: 4.2 m/s
84%
03:00
18°
998.6 hPa 3.1 mm
78%
16.2°
4
Windvlaag: 4.6 m/s
73%
04:00
17°
998.2 hPa 3.4 mm
83%
16.1°
4
Windvlaag: 4.9 m/s
72%
05:00
17°
997.9 hPa 3.1 mm
89%
15.3°
4
Windvlaag: 3.1 m/s
80%
06:00
17°
997.5 hPa 2.6 mm
94%
14.9°
4
Windvlaag: 3.7 m/s
91%
07:00
17°
997.3 hPa 2.4 mm
95%
14.2°
4
Windvlaag: 3.2 m/s
97%
08:00
17°
997.1 hPa 2.0 mm
99%
14.5°
4
Windvlaag: 3.7 m/s
98%
09:00
17°
994.5 hPa 3.8 mm
100%
16.2°
3
Windvlaag: 4.1 m/s
100% warningclass
10:00
18°
994.3 hPa 4.0 mm
100%
14.7°
4
Windvlaag: 7.9 m/s
97% warningclass
11:00
18°
993.9 hPa 4.1 mm
100%
12.6°
5
Windvlaag: 8.6 m/s
98%
12:00
18°
993.6 hPa 4.3 mm
100%
13.6°
5
Windvlaag: 9.5 m/s
99%
13:00
19°
993.3 hPa 4.4 mm
100%
12.1°
5
Windvlaag: 9.5 m/s
94% warningclass
14:00
19°
993.0 hPa 5.0 mm
100%
12.5°
5
Windvlaag: 9.6 m/s
84% warningclass
Temp/Neerslag /Baro Onweer/Dauwpunt
    Temp Baro Neerslag Dauwpunt Wind Bewolking  
 04:53     21:58    Daglengte: 17:05 Vandaag
17:00
23°
1014.0 hPa   15.0°
5
82%
20:00
21°
1013.3 hPa 1.6 mm 17.0°
2
80% warningclass
23:00
20°
1013.4 hPa 3.1 mm 18.9°
4
63% warningclass
 04:55     21:55    Daglengte: 17:00 Morgen
02:00
20°
1012.6 hPa 0.7 mm 18.6°
3
86%
05:00
20°
1011.7 hPa 6.2 mm 18.5°
4
85%
08:00
20°
1011.3 hPa   18.2°
3
81%
11:00
20°
1010.7 hPa 1.5 mm 16.6°
4
80% warningclass
14:00
20°
1009.5 hPa 5.5 mm 16.8°
5
86% warningclass
17:00
21°
1008.2 hPa 9.4 mm 18.0°
4
75% warningclass
20:00
20°
1007.3 hPa 12.1 mm 17.8°
4
84% warningclass
23:00
20°
1007.1 hPa 11.0 mm 18.6°
2
85% warningclass
 04:58     21:53    Daglengte: 16:55 Woensdag 28 Jul
02:00
19°
1006.3 hPa 6.6 mm 18.5°
2
63% warningclass
05:00
19°
1005.1 hPa 5.8 mm 18.0°
3
67%
08:00
19°
1004.7 hPa 6.7 mm 17.7°
3
84% warningclass
11:00
19°
1003.9 hPa 6.3 mm 15.6°
4
79%
14:00
20°
1003.2 hPa 8.1 mm 12.7°
5
64%
17:00
20°
1002.6 hPa   14.1°
6
59%
20:00
20°
1001.4 hPa   14.4°
5
52%
23:00
19°
1000.6 hPa 8.5 mm 16.0°
4
37%
 05:00     21:51    Daglengte: 16:51 Donderdag 29 Jul
02:00
18°
999.0 hPa 8.8 mm 15.1°
4
84%
05:00
17°
997.9 hPa 9.7 mm 15.3°
4
80%
08:00
17°
997.1 hPa 7.0 mm 14.5°
4
98%
11:00
18°
993.9 hPa 12.0 mm 12.6°
5
98%
14:00
19°
993.0 hPa 13.7 mm 12.5°
5
84% warningclass
17:00
15°
995.1 hPa 43.0 mm 12.8°
1
1%
20:00
16°
993.5 hPa 43.3 mm 12.5°
3
1%
23:00
14°
992.6 hPa 43.4 mm 11.6°
2
1%
 05:02     21:49    Daglengte: 16:47 Vrijdag 30 Jul
02:00
13°
991.5 hPa 43.4 mm 11.4°
2
1%
05:00
12°
991.0 hPa 43.4 mm 10.4°
2
1%
08:00
14°
991.5 hPa 43.4 mm 11.4°
1
1%
11:00
19°
992.5 hPa 43.4 mm 11.0°
1
1%
14:00
19°
993.5 hPa 43.4 mm 11.0°
1
1%
17:00
21°
994.2 hPa 43.4 mm 11.4°
1
1%
20:00
20°
994.5 hPa 43.4 mm 13.1°
2
0%
23:00
17°
995.7 hPa 43.4 mm 13.7°
2
0%
 05:04     21:46    Daglengte: 16:42 Zaterdag 31 Jul
02:00
16°
996.8 hPa 43.4 mm 13.5°
2
0%
05:00
14°
997.3 hPa 43.4 mm 8.9°
3
0%
08:00
15°
997.5 hPa 43.4 mm 7.9°
4
1%
11:00
19°
997.4 hPa 43.4 mm 10.5°
3
1%
14:00
20°
996.6 hPa 43.4 mm 9.9°
1
1%
17:00
20°
996.7 hPa 43.4 mm 10.5°
2
1%
20:00
18°
996.5 hPa 43.5 mm 13.4°
4
1%
23:00
16°
996.5 hPa 43.7 mm 13.4°
4
1%
 05:07     21:44    Daglengte: 16:37 Zondag 01 Aug
02:00
15°
995.7 hPa 44.0 mm 12.7°
2
1%
05:00
14°
995.4 hPa 44.8 mm 12.4°
1
1%
08:00
15°
995.3 hPa 45.1 mm 13.1°
2
1%
11:00
17°
995.6 hPa 45.2 mm 12.4°
2
1%
14:00
18°
995.6 hPa 45.4 mm 10.9°
3
1%
17:00
17°
995.6 hPa 45.9 mm 11.5°
1
1%
20:00
15°
995.7 hPa 46.8 mm 13.4°
4
1%
23:00
15°
996.1 hPa 47.1 mm 12.7°
4
1%
 05:09     21:41    Daglengte: 16:32 Maandag 02 Aug
02:00
13°
996.2 hPa 47.1 mm 11.6°
4
1%
05:00
13°
996.7 hPa 47.1 mm 11.0°
4
1%
08:00
14°
997.4 hPa 47.1 mm 10.7°
4
1%
11:00
15°
998.6 hPa 47.1 mm 8.4°
4
0%
14:00
17°
998.8 hPa 94.3 mm 5.6°
1
1%
20:00
16°
997.9 hPa 95.4 mm 11.4°
5
1%
 05:11     21:39    Daglengte: 16:28 Dinsdag 03 Aug
02:00
11°
999.5 hPa 98.6 mm 6.5°
3
0%
08:00
11°
1002.0 hPa 98.7 mm 6.1°
1
0%
14:00
17°
1002.3 hPa 98.7 mm 7.2°
4
0%
20:00
19°
1001.7 hPa 98.7 mm 6.7°
3
1%
 05:13     21:36    Daglengte: 16:23 Woensdag 04 Aug
02:00
12°
1003.9 hPa 98.7 mm 5.3°
2
0%
08:00
13°
1004.3 hPa 98.7 mm 5.9°
2
1%
14:00
16°
1000.2 hPa 99.1 mm 10.2°
2
1%
20:00
12°
998.0 hPa 115.5 mm 11.0°
2
1%
 05:16     21:34    Daglengte: 16:18 Donderdag 05 Aug
02:00
13°
996.1 hPa 116.4 mm 10.7°
1
1%
08:00
13°
993.9 hPa 116.7 mm 11.2°
2
1%
14:00
17°
1006.9 hPa 0.5 mm 10.8°
1
63%
20:00
16°
1006.0 hPa 1.4 mm 11.7°
1
66%
 05:18     21:31    Daglengte: 16:13 Vrijdag 06 Aug
02:00
13°
1006.7 hPa 1.3 mm 10.8°
1
60%
08:00
13°
1006.3 hPa 1.7 mm 10.4°
2
63%
14:00
17°
1005.5 hPa 0.8 mm 11.2°
1
67%
20:00
16°
1004.7 hPa 0.8 mm 12.0°
1
66%
 05:20     21:29    Daglengte: 16:09 Zaterdag 07 Aug
02:00
13°
1005.3 hPa 1.4 mm 11.1°
0
63%
08:00
14°
1005.1 hPa 0.7 mm 10.9°
1
64%
14:00
17°
1004.9 hPa 1.2 mm 11.9°
2
64%
20:00
16°
1004.5 hPa 0.3 mm 12.0°
2
64%
 05:22     21:26    Daglengte: 16:04 Zondag 08 Aug
02:00
13°
1005.7 hPa 0.6 mm 11.0°
1
63%
08:00
14°
1006.2 hPa 0.8 mm 10.9°
1
67%
14:00
17°
1006.4 hPa 0.6 mm 11.4°
1
66%
20:00
16°
1006.4 hPa 0.7 mm 12.2°
2
66%
 05:25     21:24    Daglengte: 15:59 Maandag 09 Aug
02:00
14°
1007.8 hPa 0.7 mm 11.4°
0
66%
08:00
14°
1008.0 hPa 0.5 mm 11.2°
1
72%
14:00
17°
1008.4 hPa 1.3 mm 12.0°
2
63%
20:00
17°
1008.4 hPa 1.4 mm 12.5°
2
57%
 05:27     21:21    Daglengte: 15:54 Dinsdag 10 Aug
02:00
14°
1009.6 hPa 0.7 mm 11.4°
1
59%
08:00
14°
1009.8 hPa 0.8 mm 11.5°
1
62%
14:00
18°
1009.8 hPa 0.5 mm 12.1°
2
56%
  CAPE Lifted Index Hail Supercell Tornado SRH 3km CL BTM PRES CL TOP PRES Swiss DWD icon SMHI TS
 04:53     21:58    Daglengte: 17:05 Vandaag
16:00 270 J/kg -1.3 K 0 % 0 % 0 % 0 m²/s² 0 0 0.41 3
17:00 402 J/kg -1.7 K 0 % 0 % 0 % 0 m²/s² 0 0 -0.29 80
18:00 372 J/kg -1.5 K 0 % 0 % 0 % 0 m²/s² 0 0 -0.78 80
19:00 579 J/kg -2.5 K 0 % 0 % 0 % 0 m²/s² 0 0 -2.2 80
20:00 734 J/kg -3.1 K 0 % 0 % 0 % 0 m²/s² 0 0 -2.53 95
21:00 145 J/kg -1.5 K 0 % 0 % 0 % 0 m²/s² 0 0 -0.54 3
22:00 124 J/kg -0.8 K 0 % 0 % 0 % 0 m²/s² 0 0 -0.35 80
23:00 232 J/kg -1.1 K 0 % 0 % 0 % 0 m²/s² 0 0 -0.35 95
 04:55     21:55    Daglengte: 17:00 Morgen
00:00 0 J/kg 0.3 K 0 % 0 % 0 % 0 m²/s² 0 0 0.78 95
01:00 0 J/kg -0.9 K 0 % 0 % 0 % 0 m²/s² 0 0 -0.87 3
02:00 0 J/kg -0.7 K 0 % 0 % 0 % 0 m²/s² 0 0 -0.7 3
03:00 0 J/kg -0.9 K 0 % 0 % 0 % 0 m²/s² 0 0 -0.42 95
04:00 88 J/kg -1.9 K 0 % 0 % 0 % 0 m²/s² 0 0 -1.63 95
05:00 90 J/kg -1.7 K 0 % 0 % 0 % 0 m²/s² 0 0 -0.74 3
06:00 100 J/kg -0.9 K 0 % 0 % 0 % 0 m²/s² 0 0 0.45 3
07:00 159 J/kg -0.7 K 0 % 0 % 0 % 0 m²/s² 0 0 -0.13 3
08:00 320 J/kg -0.9 K 0 % 0 % 0 % 0 m²/s² 0 0 -0.51 3
09:00 433 J/kg -1.7 K 0 % 0 % 0 % 0 m²/s² 0 0 -1.7 3
10:00 360 J/kg -1.3 K 0 % 0 % 0 % 0 m²/s² 0 0 -1.21 3
11:00 408 J/kg -1.1 K 0 % 0 % 0 % 0 m²/s² 0 0 -0.47 95
12:00 600 J/kg -2.1 K 0 % 0 % 0 % 0 m²/s² 0 0 -1.23 95
13:00 389 J/kg -1.8 K 0 % 0 % 0 % 0 m²/s² 0 0 -0.75 80
14:00 748 J/kg -2.7 K 0 % 0 % 0 % 0 m²/s² 0 0 -1.02 95
15:00 1114 J/kg -3.7 K 0 % 0 % 0 % 0 m²/s² 0 0 -1.6 95
16:00 1158 J/kg -3.9 K 0 % 0 % 0 % 0 m²/s² 0 0 -1.86 95
17:00 885 J/kg -3.1 K 0 % 0 % 0 % 0 m²/s² 0 0 -1.12 95
18:00 663 J/kg -3.3 K 0 % 0 % 0 % 0 m²/s² 0 0 -1.53 95
19:00 446 J/kg -2.3 K 0 % 0 % 0 % 0 m²/s² 0 0 -0.71 95
20:00 348 J/kg -2.0 K 0 % 0 % 0 % 0 m²/s² 0 0 -0.02 95
21:00 336 J/kg -2.6 K 0 % 0 % 0 % 0 m²/s² 0 0 -0.62 95
22:00 264 J/kg -2.7 K 0 % 0 % 0 % 0 m²/s² 0 0 -0.93 95
23:00 211 J/kg -1.9 K 0 % 0 % 0 % 0 m²/s² 0 0 -0.37 95
 04:58     21:53    Daglengte: 16:55 Woensdag 28 Jul
00:00 343 J/kg -3.0 K 0 % 0 % 0 % 0 m²/s² 0 0 -1.74 95
01:00 296 J/kg -2.5 K 0 % 0 % 0 % 0 m²/s² 0 0 -1.03 95
02:00 263 J/kg -1.8 K 0 % 0 % 0 % 0 m²/s² 0 0 -0.09 95
03:00 294 J/kg -2.0 K 0 % 0 % 0 % 0 m²/s² 0 0 -0.47 95
04:00 386 J/kg -2.5 K 0 % 0 % 0 % 0 m²/s² 0 0 -0.97 80
05:00 546 J/kg -2.0 K 0 % 0 % 0 % 0 m²/s² 0 0 -0.53 80
06:00 601 J/kg -2.2 K 0 % 0 % 0 % 0 m²/s² 0 0 -0.79 80
07:00 710 J/kg -2.2 K 0 % 0 % 0 % 0 m²/s² 0 0 -1 80
08:00 775 J/kg -2.3 K 0 % 0 % 0 % 0 m²/s² 0 0 -1.25 95
09:00 804 J/kg -2.3 K 0 % 0 % 0 % 0 m²/s² 0 0 -0.83 95
10:00 761 J/kg -2.2 K 0 % 0 % 0 % 0 m²/s² 0 0 -0.49 95
11:00 491 J/kg -1.5 K 0 % 0 % 0 % 0 m²/s² 0 0 0.78 80
12:00 283 J/kg -0.8 K 0 % 0 % 0 % 0 m²/s² 0 0 1.87 80
13:00 200 J/kg -0.4 K 0 % 0 % 0 % 0 m²/s² 0 0 2.42 80
14:00 259 J/kg -1.2 K 0 % 0 % 0 % 0 m²/s² 0 0 1.62 80
15:00 371 J/kg -1.8 K 0 % 0 % 0 % 0 m²/s² 0 0 1.17 3
16:00 418 J/kg -2.0 K 0 % 0 % 0 % 0 m²/s² 0 0 0.82 2
17:00 311 J/kg -1.7 K 0 % 0 % 0 % 0 m²/s² 0 0 0.94 2
18:00 383 J/kg -2.2 K 0 % 0 % 0 % 0 m²/s² 0 0 0.95 2
19:00 412 J/kg -2.4 K 0 % 0 % 0 % 0 m²/s² 0 0 0.99 2
20:00 375 J/kg -2.0 K 0 % 0 % 0 % 0 m²/s² 0 0 1.48 2
21:00 286 J/kg -1.5 K 0 % 0 % 0 % 0 m²/s² 0 0 1.89 3
22:00 208 J/kg -1.0 K 0 % 0 % 0 % 0 m²/s² 0 0 1.55 3
23:00 180 J/kg -1.1 K 0 % 0 % 0 % 0 m²/s² 0 0 0.58 3
 05:00     21:51    Daglengte: 16:51 Donderdag 29 Jul
00:00 109 J/kg -0.8 K 0 % 0 % 0 % 0 m²/s² 0 0 0.43 3
01:00 46 J/kg -0.7 K 0 % 0 % 0 % 0 m²/s² 0 0 0.32 3
02:00 0 J/kg 0.1 K 0 % 0 % 0 % 0 m²/s² 0 0 1.03 3
03:00 10 J/kg 1.0 K 0 % 0 % 0 % 0 m²/s² 0 0 2.17 3
04:00 3 J/kg 1.3 K 0 % 0 % 0 % 0 m²/s² 0 0 2.17 3
05:00 6 J/kg 1.0 K 0 % 0 % 0 % 0 m²/s² 0 0 1.78 3
06:00 5 J/kg 0.3 K 0 % 0 % 0 % 0 m²/s² 0 0 1.29 80
07:00 0 J/kg -0.7 K 0 % 0 % 0 % 0 m²/s² 0 0 -0.1 80
08:00 112 J/kg -1.8 K 0 % 0 % 0 % 0 m²/s² 0 0 -0.57 80
09:00 575 J/kg -3.3 K 0 % 0 % 0 % 0 m²/s² 0 0 -2.7 80
10:00 799 J/kg -3.6 K 0 % 0 % 0 % 0 m²/s² 0 0 -2.55 80
11:00 406 J/kg -2.2 K 0 % 0 % 0 % 0 m²/s² 0 0 0.29 80
12:00 869 J/kg -4.2 K 0 % 0 % 0 % 0 m²/s² 0 0 -1.92 80
13:00 772 J/kg -3.9 K 0 % 0 % 0 % 0 m²/s² 0 0 -1.56 95
14:00 886 J/kg -4.3 K 0 % 0 % 0 % 0 m²/s² 0 0 -1.03 95
Temp Baro Wind Neerslag
  EWN Forecast EWN WRFDA DWD ICON FMI HIRLAM MET Norway GFS
 04:53     21:58    Daglengte: 17:05 Vandaag
17:00 23.0° 1014.0 hPa 4.7 m/s 0.0 mm 25.5° 1012.4 hPa 4.3 m/s 0.0 mm 20.7° 1014.7 hPa 2.2 m/s -1.3 mm 23.1° 1014.1 hPa 4.8 m/s 0.0 mm 23.9° 1013.7 hPa 3.0 m/s
20:00 21.0° 1013.3 hPa 2.4 m/s 1.6 mm 20.6° 1012.3 hPa 7.5 m/s 1.0 mm 20.3° 1013.5 hPa 1.8 m/s 2.4 mm 22.2° 1013.0 hPa 1.6 m/s 0.0 mm 19.3° 1013.2 hPa 4.6 m/s
23:00 20.3° 1013.4 hPa 3.7 m/s 3.1 mm 18.9° 1011.8 hPa 3.9 m/s 7.0 mm 19.7° 1013.6 hPa 2.7 m/s 5.2 mm 20.7° 1012.6 hPa 4.2 m/s 0.0 mm 18.7° 1013.6 hPa 2.9 m/s
 04:55     21:55    Daglengte: 17:00 Morgen
02:00 19.9° 1012.6 hPa 3.0 m/s 0.7 mm 18.3° 1011.4 hPa 2.8 m/s 7.8 mm 19.8° 1012.7 hPa 2.9 m/s 2.6 mm 20.0° 1012.6 hPa 1.7 m/s 0.0 mm 18.3° 1013.0 hPa 2.6 m/s
05:00 19.6° 1011.7 hPa 3.6 m/s 6.2 mm 18.5° 1010.4 hPa 1.6 m/s 10.0 mm 19.5° 1011.5 hPa 4.3 m/s 8.9 mm 19.6° 1011.8 hPa 3.1 m/s 0.0 mm 17.3° 1012.5 hPa 3.0 m/s
08:00 19.9° 1011.3 hPa 3.2 m/s 0.0 mm 19.4° 1010.1 hPa 2.5 m/s 11.5 mm 20.0° 1011.0 hPa 3.6 m/s 0.0 mm 20.2° 1011.3 hPa 3.3 m/s 0.0 mm 18.1° 1012.3 hPa 3.8 m/s
11:00 20.5° 1010.7 hPa 4.3 m/s 1.5 mm 20.9° 1008.8 hPa 4.4 m/s 14.4 mm 20.3° 1010.8 hPa 2.3 m/s 1.1 mm 21.6° 1010.9 hPa 4.4 m/s 0.0 mm 18.5° 1011.2 hPa 3.6 m/s
14:00 20.5° 1009.5 hPa 5.3 m/s 5.5 mm 21.8° 1007.5 hPa 4.1 m/s 17.7 mm 20.3° 1009.8 hPa 2.7 m/s 3.8 mm 20.8° 1009.2 hPa 5.8 m/s 0.0 mm 18.4° 1009.9 hPa 4.7 m/s
17:00 21.1° 1008.2 hPa 3.8 m/s 9.4 mm 23.4° 1006.3 hPa 1.4 m/s 18.9 mm 20.3° 1008.5 hPa 1.5 m/s 12.4 mm 21.6° 1007.7 hPa 4.4 m/s 0.0 mm 18.3° 1008.3 hPa 3.9 m/s
20:00 20.1° 1007.3 hPa 3.8 m/s 12.1 mm 22.4° 1005.4 hPa 2.3 m/s 19.0 mm 19.6° 1007.7 hPa 1.2 m/s 8.0 mm 20.7° 1006.8 hPa 4.2 m/s 0.0 mm 19.2° 1007.1 hPa 1.9 m/s
23:00 19.5° 1007.1 hPa 1.8 m/s 11.0 mm 18.9° 1005.9 hPa 1.3 m/s 19.0 mm 19.4° 1007.2 hPa 1.7 m/s 3.8 mm 19.6° 1007.1 hPa 1.2 m/s 0.0 mm 18.6° 1007.3 hPa 2.5 m/s
 04:58     21:53    Daglengte: 16:55 Woensdag 28 Jul
02:00 19.0° 1006.3 hPa 2.1 m/s 6.6 mm 18.6° 1005.2 hPa 1.0 m/s 19.8 mm 18.9° 1006.3 hPa 2.6 m/s 3.6 mm 19.0° 1006.5 hPa 1.2 m/s 0.0 mm 17.8° 1006.8 hPa 1.7 m/s
05:00 18.7° 1005.1 hPa 2.7 m/s 5.8 mm 18.0° 1004.3 hPa 1.2 m/s 20.7 mm 18.7° 1005.1 hPa 2.3 m/s 2.4 mm 18.7° 1005.8 hPa 2.7 m/s 0.0 mm 17.0° 1005.8 hPa 1.9 m/s
08:00 18.9° 1004.7 hPa 3.5 m/s 6.7 mm 19.3° 1003.6 hPa 1.5 m/s 21.7 mm 18.8° 1004.3 hPa 3.5 m/s 2.8 mm 18.9° 1005.4 hPa 3.3 m/s 0.0 mm 17.7° 1005.7 hPa 0.5 m/s
11:00 19.3° 1003.9 hPa 3.9 m/s 6.3 mm 21.1° 1002.4 hPa 2.8 m/s 23.0 mm 18.9° 1003.9 hPa 3.6 m/s 2.9 mm 18.7° 1005.1 hPa 3.3 m/s
14:00 20.1° 1003.2 hPa 4.8 m/s 8.1 mm 23.2° 1001.4 hPa 4.7 m/s 23.6 mm 19.7° 1003.2 hPa 4.3 m/s 2.0 mm 19.8° 1004.7 hPa 4.7 m/s
17:00 20.3° 1002.6 hPa 5.7 m/s 0.0 mm 22.3° 1000.6 hPa 5.7 m/s 23.6 mm 20.4° 1002.4 hPa 4.9 m/s 0.0 mm 20.5° 1004.0 hPa 5.5 m/s
20:00 19.7° 1001.4 hPa 4.6 m/s 0.0 mm 21.2° 999.1 hPa 5.3 m/s 23.6 mm 19.6° 1001.1 hPa 4.7 m/s 0.0 mm 19.4° 1002.9 hPa 4.5 m/s
23:00 18.6° 1000.6 hPa 3.8 m/s 8.5 mm 18.1° 998.8 hPa 6.3 m/s 23.6 mm 18.4° 1000.2 hPa 2.8 m/s 0.0 mm 17.2° 1002.5 hPa 3.6 m/s
 05:00     21:51    Daglengte: 16:51 Donderdag 29 Jul
02:00 18.0° 999.0 hPa 4.0 m/s 8.8 mm 17.2° 998.3 hPa 6.3 m/s 23.6 mm 18.1° 998.0 hPa 2.2 m/s 0.0 mm 16.2° 1001.2 hPa 3.0 m/s
05:00 17.3° 997.9 hPa 4.0 m/s 9.7 mm 15.2° 997.6 hPa 5.1 m/s 23.6 mm 17.6° 996.1 hPa 1.5 m/s 0.1 mm 16.0° 999.5 hPa 2.1 m/s
08:00 17.4° 997.1 hPa 3.9 m/s 7.0 mm 16.6° 997.1 hPa 3.9 m/s 23.6 mm 17.4° 994.4 hPa 2.2 m/s 1.6 mm 16.6° 998.3 hPa 4.5 m/s
11:00 18.1° 993.9 hPa 4.6 m/s 12.0 mm 18.7° 996.5 hPa 6.3 m/s 32.1 mm 17.9° 993.3 hPa 4.2 m/s 2.0 mm 17.3° 997.4 hPa 5.7 m/s
14:00 18.7° 993.0 hPa 5.3 m/s 13.7 mm 19.7° 995.6 hPa 7.3 m/s 33.0 mm 18.4° 992.3 hPa 4.8 m/s 4.0 mm 15.6° 996.6 hPa 6.9 m/s
17:00 14.9° 995.1 hPa 1.4 m/s 43.0 mm 14.9° 995.1 hPa 1.4 m/s 43.0 mm
20:00 15.6° 993.5 hPa 2.9 m/s 43.3 mm 15.6° 993.5 hPa 2.9 m/s 43.3 mm
23:00 13.9° 992.6 hPa 2.4 m/s 43.4 mm 13.9° 992.6 hPa 2.4 m/s 43.4 mm
 05:02     21:49    Daglengte: 16:47 Vrijdag 30 Jul
02:00 13.0° 991.5 hPa 1.8 m/s 43.4 mm 13.0° 991.5 hPa 1.8 m/s 43.4 mm
05:00 12.4° 991.0 hPa 2.0 m/s 43.4 mm 12.4° 991.0 hPa 2.0 m/s 43.4 mm
08:00 14.4° 991.5 hPa 1.0 m/s 43.4 mm 14.4° 991.5 hPa 1.0 m/s 43.4 mm
11:00 19.1° 992.5 hPa 1.3 m/s 43.4 mm 19.1° 992.5 hPa 1.3 m/s 43.4 mm
14:00 18.8° 993.5 hPa 1.5 m/s 43.4 mm 18.8° 993.5 hPa 1.5 m/s 43.4 mm
17:00 20.7° 994.2 hPa 0.8 m/s 43.4 mm 20.7° 994.2 hPa 0.8 m/s 43.4 mm
20:00 20.0° 994.5 hPa 2.4 m/s 43.4 mm 20.0° 994.5 hPa 2.4 m/s 43.4 mm
23:00 17.4° 995.7 hPa 1.8 m/s 43.4 mm 17.4° 995.7 hPa 1.8 m/s 43.4 mm
 05:04     21:46    Daglengte: 16:42 Zaterdag 31 Jul
02:00 16.2° 996.8 hPa 2.2 m/s 43.4 mm 16.2° 996.8 hPa 2.2 m/s 43.4 mm
05:00 14.0° 997.3 hPa 3.5 m/s 43.4 mm 14.0° 997.3 hPa 3.5 m/s 43.4 mm
08:00 15.0° 997.5 hPa 3.9 m/s 43.4 mm 15.0° 997.5 hPa 3.9 m/s 43.4 mm
11:00 18.5° 997.4 hPa 3.4 m/s 43.4 mm 18.5° 997.4 hPa 3.4 m/s 43.4 mm
14:00 20.0° 996.6 hPa 1.2 m/s 43.4 mm 20.0° 996.6 hPa 1.2 m/s 43.4 mm
17:00 20.1° 996.7 hPa 2.5 m/s 43.4 mm 20.1° 996.7 hPa 2.5 m/s 43.4 mm
20:00 18.3° 996.5 hPa 4.3 m/s 43.5 mm 18.3° 996.5 hPa 4.3 m/s 43.5 mm
23:00 15.9° 996.5 hPa 3.9 m/s 43.7 mm 15.9° 996.5 hPa 3.9 m/s 43.7 mm
 05:07     21:44    Daglengte: 16:37 Zondag 01 Aug
02:00 15.3° 995.7 hPa 2.0 m/s 44.0 mm 15.3° 995.7 hPa 2.0 m/s 44.0 mm
05:00 14.4° 995.4 hPa 1.2 m/s 44.8 mm 14.4° 995.4 hPa 1.2 m/s 44.8 mm
08:00 14.9° 995.3 hPa 2.4 m/s 45.1 mm 14.9° 995.3 hPa 2.4 m/s 45.1 mm
11:00 16.8° 995.6 hPa 2.2 m/s 45.2 mm 16.8° 995.6 hPa 2.2 m/s 45.2 mm
14:00 17.7° 995.6 hPa 2.9 m/s 45.4 mm 17.7° 995.6 hPa 2.9 m/s 45.4 mm
17:00 17.1° 995.6 hPa 1.4 m/s 45.9 mm 17.1° 995.6 hPa 1.4 m/s 45.9 mm
20:00 15.2° 995.7 hPa 4.1 m/s 46.8 mm 15.2° 995.7 hPa 4.1 m/s 46.8 mm
23:00 14.5° 996.1 hPa 3.6 m/s 47.1 mm 14.5° 996.1 hPa 3.6 m/s 47.1 mm
 05:09     21:41    Daglengte: 16:32 Maandag 02 Aug
02:00 13.1° 996.2 hPa 3.9 m/s 47.1 mm 13.1° 996.2 hPa 3.9 m/s 47.1 mm
05:00 13.5° 996.7 hPa 3.8 m/s 47.1 mm 13.5° 996.7 hPa 3.8 m/s 47.1 mm
08:00 13.7° 997.4 hPa 3.6 m/s 47.1 mm 13.7° 997.4 hPa 3.6 m/s 47.1 mm
11:00 14.7° 998.6 hPa 4.2 m/s 47.1 mm 14.7° 998.6 hPa 4.2 m/s 47.1 mm
14:00 17.3° 998.8 hPa 1.0 m/s 47.1 mm 17.3° 998.8 hPa 1.0 m/s 47.1 mm
20:00 15.8° 997.9 hPa 5.0 m/s 48.3 mm 15.8° 997.9 hPa 5.0 m/s 48.3 mm
 05:11     21:39    Daglengte: 16:28 Dinsdag 03 Aug
02:00 10.9° 999.5 hPa 3.3 m/s 49.3 mm 10.9° 999.5 hPa 3.3 m/s 49.3 mm
08:00 11.3° 1002.0 hPa 1.0 m/s 49.3 mm 11.3° 1002.0 hPa 1.0 m/s 49.3 mm
14:00 16.8° 1002.3 hPa 4.2 m/s 49.3 mm 16.8° 1002.3 hPa 4.2 m/s 49.3 mm
20:00 18.9° 1001.7 hPa 3.0 m/s 49.3 mm 18.9° 1001.7 hPa 3.0 m/s 49.3 mm
 05:13     21:36    Daglengte: 16:23 Woensdag 04 Aug
02:00 12.0° 1003.9 hPa 2.1 m/s 49.3 mm 12.0° 1003.9 hPa 2.1 m/s 49.3 mm
08:00 12.7° 1004.3 hPa 1.7 m/s 49.3 mm 12.7° 1004.3 hPa 1.7 m/s 49.3 mm
14:00 16.0° 1000.2 hPa 1.8 m/s 49.8 mm 16.0° 1000.2 hPa 1.8 m/s 49.8 mm
20:00 12.5° 998.0 hPa 1.7 m/s 58.0 mm 12.5° 998.0 hPa 1.7 m/s 58.0 mm
 05:16     21:34    Daglengte: 16:18 Donderdag 05 Aug
02:00 12.5° 996.1 hPa 1.0 m/s 58.3 mm 12.5° 996.1 hPa 1.0 m/s 58.3 mm
08:00 13.3° 993.9 hPa 1.7 m/s 58.3 mm 13.3° 993.9 hPa 1.7 m/s 58.3 mm
14:00 16.7° 1006.9 hPa 1.2 m/s 0.5 mm
20:00 15.9° 1006.0 hPa 1.2 m/s 1.4 mm
 05:18     21:31    Daglengte: 16:13 Vrijdag 06 Aug
02:00 13.1° 1006.7 hPa 0.6 m/s 1.3 mm
08:00 13.4° 1006.3 hPa 1.7 m/s 1.7 mm
14:00 16.9° 1005.5 hPa 0.8 m/s 0.8 mm
20:00 16.2° 1004.7 hPa 1.0 m/s 0.8 mm
 05:20     21:29    Daglengte: 16:09 Zaterdag 07 Aug
02:00 13.4° 1005.3 hPa 0.5 m/s 1.4 mm
08:00 13.7° 1005.1 hPa 1.0 m/s 0.7 mm
14:00 16.9° 1004.9 hPa 1.9 m/s 1.2 mm
20:00 16.2° 1004.5 hPa 1.6 m/s 0.3 mm
 05:22     21:26    Daglengte: 16:04 Zondag 08 Aug
02:00 13.3° 1005.7 hPa 0.7 m/s 0.6 mm
08:00 13.5° 1006.2 hPa 1.5 m/s 0.8 mm
14:00 17.2° 1006.4 hPa 1.4 m/s 0.6 mm
20:00 16.4° 1006.4 hPa 1.7 m/s 0.7 mm
 05:25     21:24    Daglengte: 15:59 Maandag 09 Aug
02:00 13.6° 1007.8 hPa 0.4 m/s 0.7 mm
08:00 14.2° 1008.0 hPa 0.6 m/s 0.5 mm